Total_Precipitation_Accumulation
0.06 0.04 0.02 0.02 0.03 0.10 0.14 0.06 0.05 0.05 0.01 0.01 0.00 0.00 0.00 0.00 0.00 0.00 0.00 0.00 0.00 0.00 0.00 0.02 0.01 0.01 0.01 0.02 0.02 0.06 0.07 0.06 0.04
0.05 0.03 0.03 0.02 0.02 0.04 0.11 0.14 0.10 0.03 0.01 0.02 0.00 0.00 0.00 0.01 0.00 0.00 0.00 0.00 0.00 0.00 0.01 0.02 0.01 0.01 0.00 0.01 0.01 0.02 0.04 0.04 0.06
0.05 0.03 0.02 0.02 0.04 0.05 0.04 0.10 0.12 0.07 0.04 0.03 0.01 0.00 0.00 0.00 0.00 0.00 0.00 0.00 0.00 0.02 0.01 0.01 0.01 0.01 0.01 0.01 0.02 0.02 0.03 0.04 0.04
0.08 0.05 0.02 0.04 0.08 0.08 0.04 0.05 0.07 0.06 0.07 0.04 0.01 0.00 0.00 0.00 0.00 0.00 0.00 0.00 0.00 0.00 0.00 0.03 0.07 0.05 0.03 0.02 0.02 0.03 0.03 0.03 0.04
0.08 0.05 0.05 0.08 0.08 0.15 0.12 0.09 0.10 0.11 0.08 0.02 0.00 0.00 0.00 0.00 0.00 0.00 0.00 0.00 0.00 0.00 0.01 0.07 0.07 0.02 0.05 0.04 0.04 0.04 0.01 0.01 0.02
0.12 0.08 0.06 0.07 0.11 0.14 0.16 0.18 0.14 0.13 0.06 0.00 0.00 0.00 0.00 0.00 0.00 0.00 0.00 0.00 0.00 0.00 0.00 0.04 0.10 0.01 0.04 0.09 0.06 0.04 0.02 0.01 0.00
0.13 0.11 0.07 0.05 0.10 0.13 0.14 0.19 0.15 0.10 0.03 0.00 0.00 0.00 0.00 0.00 0.00 0.00 0.00 0.00 0.00 0.00 0.01 0.10 0.08 0.00 0.04 0.12 0.04 0.02 0.02 0.00 0.00
0.12 0.15 0.10 0.09 0.08 0.12 0.15 0.18 0.15 0.03 0.01 0.00 0.00 0.00 0.00 0.00 0.00 0.00 0.00 0.00 0.00 0.00 0.01 0.12 0.06 0.01 0.04 0.07 0.03 0.02 0.00 0.00 0.00
0.05 0.11 0.15 0.11 0.08 0.10 0.14 0.14 0.15 0.12 0.03 0.00 0.00 0.00 0.00 0.00 0.00 0.00 0.01 0.01 0.01 0.00 0.01 0.06 0.05 0.02 0.03 0.05 0.03 0.02 0.00 0.00 0.00
0.04 0.23 0.19 0.15 0.10 0.11 0.10 0.07 0.08 0.14 0.07 0.01 0.00 0.00 0.00 0.00 0.00 0.00 0.01 0.01 0.01 0.00 0.03 0.03 0.03 0.03 0.01 0.02 0.03 0.02 0.01 0.00 0.00
0.01 0.08 0.26 0.15 0.11 0.18 0.16 0.15 0.06 0.05 0.05 0.01 0.00 0.00 0.00 0.00 0.00 0.00 0.00 0.00 0.00 0.00 0.02 0.03 0.04 0.02 0.00 0.02 0.04 0.03 0.01 0.00 0.00
0.01 0.09 0.20 0.17 0.11 0.15 0.30 0.20 0.24 0.17 0.10 0.06 0.01 0.00 0.00 0.00 0.00 0.00 0.00 0.00 0.00 0.00 0.01 0.03 0.04 0.02 0.00 0.02 0.07 0.03 0.01 0.00 0.00
0.01 0.07 0.28 0.31 0.22 0.17 0.30 0.53 0.30 0.27 0.26 0.24 0.18 0.04 0.01 0.00 0.00 0.00 0.00 0.00 0.00 0.00 0.01 0.04 0.06 0.02 0.00 0.02 0.09 0.05 0.01 0.00 0.00
0.01 0.04 0.08 0.22 0.30 0.29 0.34 0.44 0.64 0.45 0.24 0.20 0.22 0.20 0.07 0.01 0.00 0.00 0.00 0.00 0.00 0.00 0.01 0.01 0.04 0.02 0.00 0.01 0.08 0.06 0.01 0.00 0.00
0.00 0.01 0.08 0.20 0.26 0.28 0.30 0.38 0.50 0.68 0.47 0.26 0.18 0.15 0.10 0.02 0.00 0.00 0.00 0.00 0.00 0.00 0.00 0.01 0.02 0.01 0.02 0.01 0.06 0.06 0.02 0.01 0.00
0.00 0.02 0.02 0.14 0.23 0.21 0.24 0.31 0.42 0.56 0.64 0.57 0.35 0.21 0.10 0.02 0.00 0.00 0.00 0.00 0.00 0.00 0.00 0.01 0.01 0.00 0.01 0.01 0.04 0.07 0.02 0.00 0.00
0.00 0.04 0.09 0.13 0.16 0.22 0.23 0.34 0.47 0.51 0.58 0.55 0.50 0.39 0.21 0.07 0.01 0.00 0.00 0.00 0.00 0.00 0.00 0.01 0.01 0.00 0.01 0.01 0.02 0.06 0.02 0.00 0.01
0.00 0.00 0.09 0.21 0.24 0.19 0.21 0.28 0.39 0.47 0.51 0.46 0.38 0.29 0.23 0.10 0.04 0.01 0.00 0.00 0.00 0.00 0.00 0.00 0.01 0.00 0.00 0.01 0.01 0.03 0.03 0.01 0.01
0.00 0.00 0.02 0.17 0.33 0.26 0.20 0.26 0.32 0.36 0.42 0.41 0.23 0.13 0.12 0.10 0.05 0.02 0.01 0.00 0.00 0.00 0.00 0.00 0.01 0.01 0.00 0.00 0.01 0.01 0.02 0.03 0.01
0.00 0.00 0.01 0.05 0.33 0.29 0.28 0.31 0.32 0.31 0.27 0.31 0.23 0.22 0.12 0.07 0.03 0.01 0.01 0.00 0.00 0.00 0.00 0.00 0.00 0.01 0.00 0.00 0.00 0.00 0.01 0.02 0.02